SHENZHOU-11 MODULE (41868 NORAD) Tracking and Keplerian Element Data

This shows tracking and keplerian element data for the satellite.

Feedback or suggestion? Click here.




ElementValue
Catalog41868
NameSHENZHOU-11 MODULE
Epoch Orbit15748
Epoch Day228.91743177
Epoch Year2019
RAAN234.809
Inclination42.7919
Eccentricity0.000589
Argument of Perigee116.2193
Mean Anonmoly318.7892
Mean Motion15.81604783
Decay Rate0.00010232
L11 41868U 16061G 19228.91743177 .00010232 00000-0 51962-4 0 9997
L22 41868 42.7919 234.8090 0005890 116.2193 318.7892 15.81604783157488

Live tracking and technical data element details for SHENZHOU-11 MODULE (NORAD 41868). SHENZHOU-11 MODULE can be tracked NOW for your location showing map with azimuth and elevation plus other details from your city location.

Track the satellite on the map from your city or location and see movement details for azimuth, elevation, latitude, longitude, range, height, and movement on the map or in text.







IsCatalogInMostPopularTable: catalog: 41868, numindb: 289
Update: records affected: 1



GetName: 41868 SHENZHOU-11 MODULE

Hit Count: updated at: Wed, 21 Aug 2019 11:06:58 GMT